INSAT-3DR (41752 NORAD) Tracking and Keplerian Element Data

This shows tracking and keplerian element data for the satellite.

Feedback or suggestion? Click here.




ElementValue
Catalog41752
NameINSAT-3DR
Epoch Orbit1306
Epoch Day91.82543295
Epoch Year2020
RAAN89.7301
Inclination0.0902
Eccentricity0.0011711
Argument of Perigee193.8509
Mean Anonmoly277.191
Mean Motion1.0027198
Decay Rate-8E-07
L11 41752U 16054A 20091.82543295 -.00000080 00000-0 00000-0 0 9994
L22 41752 0.0902 89.7301 0011711 193.8509 277.1910 1.00271980 13061

Live tracking and technical data element details for INSAT-3DR (NORAD 41752). INSAT-3DR can be tracked NOW for your location showing map with azimuth and elevation plus other details from your city location.

Track the satellite on the map from your city or location and see movement details for azimuth, elevation, latitude, longitude, range, height, and movement on the map or in text.







IsCatalogInMostPopularTable: catalog: 41752, numindb: 367
Update: records affected: 1



GetName: 41752 INSAT-3DR

Hit Count: updated at: Fri, 03 Apr 2020 08:19:54 GMT